FW0042 Weather Reports


time (UTC)temp
C
wind
direction
speed
KPH
gust
KPH
rain 1hr
cm
rain 24hr
cm
rain mn
cm
humidity
%
barometer
mb
20260506044545 -17 0.0 0.0 0.00 0.05 0.03 1013.6
20260506043039 -17 0.0 0.0 0.00 0.05 0.03 1013.9
20260506041535 -17 0.0 0.0 0.00 0.05 0.03 1013.9
20260506040030 -17 0.0 0.0 0.00 0.05 0.03 1013.9
20260506034526 -17 0.0 0.0 0.00 0.05 0.03 1013.9
20260506033021 -17 0.0 0.0 0.00 0.05 0.03 1013.9
20260506031516 -17 0.0 0.0 0.00 0.05 0.03 1013.7
20260506030014 -17 0.0 0.0 0.00 0.05 0.03 1013.6
20260506024507 -17 0.0 0.0 0.00 0.05 0.03 1013.8
20260506023002 1 311 0.0 0.0 0.00 0.05 0.03 95 1013.9
20260506021503 1 311 0.0 0.0 0.00 0.05 0.03 95 1013.9
20260506020003 1 311 0.0 0.0 0.00 0.05 0.03 95 1013.9
20260506014502 1 311 0.0 0.0 0.00 0.05 0.03 95 1014.0
20260506013100 1 311 0.0 0.0 0.00 0.05 0.03 94 1014.1
20260506011602 1 312 0.0 0.0 0.00 0.05 0.03 95 1014.0
20260506010058 1 312 0.0 0.0 0.00 0.05 0.03 94 1014.0
20260506004557 1 312 0.0 0.0 0.03 0.05 0.03 94 1014.0
20260506003058 1 312 0.0 0.0 0.03 0.05 0.03 94 1014.0
20260506001606 1 312 0.0 0.0 0.03 0.05 0.03 94 1013.9
20260506000119 0 312 0.0 0.0 0.03 0.05 0.03 94 1014.0
20260505234556 0 312 0.0 0.0 0.00 0.03 0.00 94 1014.0
20260505233054 0 312 0.0 0.0 0.00 0.03 0.00 93 1013.9
20260505231555 0 302 0.0 0.0 0.00 0.03 0.00 93 1014.0
20260505230051 0 302 0.0 0.0 0.00 0.03 0.00 93 1014.0
20260505224550 1 302 0.0 0.0 0.00 0.03 0.00 93 1014.0
20260505223045 1 302 0.0 0.0 0.00 0.03 0.00 93 1013.9
20260505221550 1 302 0.0 0.0 0.00 0.03 0.00 92 1013.9
20260505220048 1 302 0.0 0.0 0.00 0.03 0.00 92 1013.8
20260505214546 1 302 0.0 0.0 0.00 0.03 0.03 92 1013.7
20260505213039 1 302 0.0 0.0 0.00 0.03 0.03 92 1013.6
20260505211607 1 302 0.0 0.0 0.00 0.03 0.03 92 1013.5
20260505210042 1 302 0.0 0.0 0.00 0.03 0.03 92 1013.4
20260505204548 2 302 0.0 0.0 0.00 0.03 0.03 92 1013.4
20260505203035 2 302 0.0 0.0 0.00 0.03 0.03 92 1013.3
20260505201538 2 302 0.0 0.0 0.00 0.03 0.03 91 1013.3
20260505200033 2 302 0.0 0.0 0.00 0.03 0.03 92 1013.2
20260505194532 2 303 0.0 0.0 0.00 0.03 0.03 92 1013.2
20260505193030 2 303 0.0 0.0 0.00 0.03 0.03 91 1013.0
20260505191534 2 303 0.0 0.0 0.00 0.03 0.03 90 1012.8
20260505190027 3 303 0.0 0.0 0.00 0.03 0.03 89 1012.7
20260505184530 3 307 0.0 19.3 0.00 0.03 0.03 89 1012.5
20260505183025 3 215 0.0 0.0 0.00 0.03 0.03 90 1012.1
20260505181524 3 216 0.0 0.0 0.00 0.03 0.03 89 1012.1
20260505180022 4 181 0.0 0.0 0.00 0.03 0.03 89 1012.2
20260505174534 4 151 0.0 0.0 0.00 0.03 0.03 88 1012.3
20260505173022 4 151 0.0 0.0 0.00 0.03 0.03 88 1012.4
20260505171531 4 152 0.0 0.0 0.00 0.03 0.03 86 1012.3
20260505170019 3 199 0.0 0.0 0.00 0.03 0.03 88 1012.3
20260505164521 3 96 0.0 0.0 0.00 0.03 0.03 89 1012.1
20260505163019 3 154 0.0 0.0 0.00 0.03 0.03 88 1012.2
20260505161518 3 193 0.0 0.0 0.00 0.03 0.03 88 1012.1
20260505153032 5 149 0.0 1.6 0.00 0.05 0.03 76 1011.8
20260505151514 5 131 0.0 1.6 0.00 0.05 0.03 74 1011.8
20260505124501 3 165 0.0 4.8 0.00 0.05 0.03 87 1012.2
20260505123108 3 178 0.0 3.2 0.00 0.05 0.03 88 1011.7
20260505121559 3 193 0.0 17.7 0.00 0.05 0.03 90 1011.6
20260505120119 3 128 0.0 6.4 0.00 0.05 0.03 89 1011.9
20260505114557 3 156 0.0 1.6 0.00 0.05 0.03 86 1011.6
20260505113056 3 141 0.0 3.2 0.00 0.05 0.03 90 1011.4
20260505111556 3 74 0.0 1.6 0.00 0.05 0.03 91 1011.9
20260505110109 3 355 0.0 0.0 0.00 0.05 0.03 92 1011.8
20260505101547 2 360 0.0 0.0 0.00 0.05 0.03 90 1012.0
20260505100046 2 36 0.0 0.0 0.00 0.05 0.03 89 1012.1
20260505094545 2 36 0.0 0.0 0.00 0.05 0.03 89 1012.1
20260505093048 2 119 0.0 0.0 0.00 0.05 0.03 89 1012.0
20260505091553 2 119 0.0 0.0 0.03 0.05 0.03 89 1012.0
20260505090044 2 119 0.0 0.0 0.03 0.05 0.03 88 1011.9
20260505084553 2 158 0.0 0.0 0.03 0.05 0.03 86 1011.8
20260505083055 2 143 0.0 0.0 0.03 0.05 0.03 86 1011.8
20260505081543 2 165 0.0 0.0 0.00 0.05 0.00 87 1011.8
20260505080041 2 137 0.0 3.2 0.00 0.05 0.00 87 1011.8
20260505074541 2 146 0.0 1.6 0.00 0.05 0.00 89 1011.8
20260505073047 2 158 0.0 1.6 0.00 0.05 0.00 90 1011.8
20260505071540 2 90 0.0 1.6 0.00 0.05 0.00 92 1011.8
20260505070038 2 77 0.0 1.6 0.00 0.05 0.00 93 1011.9
20260505064546 2 346 0.0 0.0 0.00 0.05 0.00 94 1011.9
20260505063031 -17 0.0 0.0 0.00 0.05 0.00 1012.0
20260505061527 -17 0.0 0.0 0.00 0.05 0.00 1012.1
20260505060022 -17 0.0 0.0 0.00 0.05 0.00 1012.0
20260505054535 -17 0.0 0.0 0.00 0.05 0.00 1012.1
20260505053013 -17 0.0 0.0 0.00 0.05 0.00 1012.1
20260505051511 -17 0.0 0.0 0.00 0.05 0.00 1011.9